Location: White Rock
(35.8256°N, 106.1876°W)
Time: 00:07:57
(UTC-07:00)

ISS - Visible Passes

Search period start: 24 January 2019 00:00
Search period end: 03 February 2019 00:00
Orbit: 404 x 410 km, 51.6° (Epoch: 24 January)

Date Brightness Start Highest point End Pass type
(mag) Time Alt. Az. Time Alt. Az. Time Alt. Az.
24 Jan -1.3 19:05:51 10° WNW 19:07:51 15° NNW 19:08:25 14° NNW visible
25 Jan -1.8 18:13:34 10° W 18:16:16 23° NNW 18:18:58 10° NNE visible
27 Jan -1.2 18:08:49 10° NW 18:10:19 12° NNW 18:11:50 10° N visible
